QPF
0.42 0.63 0.93 1.41 1.96 2.47 2.83 2.79 2.12 1.50 1.04 0.63 0.30 0.14 0.08 0.03 0.01 0.01 0.00 0.00 0.00 0.00 0.00 0.00 0.00 0.00 0.00 0.00 0.00 0.00 0.00 0.00 0.00 0.00 0.00 0.00 0.00 0.00 0.00 0.00 0.00 0.01 0.01
0.61 0.81 1.12 1.48 1.45 1.56 1.66 1.31 0.97 0.73 0.52 0.33 0.20 0.12 0.06 0.03 0.01 0.01 0.00 0.00 0.00 0.00 0.00 0.00 0.00 0.00 0.00 0.00 0.00 0.00 0.00 0.00 0.00 0.00 0.00 0.00 0.00 0.00 0.00 0.00 0.01 0.02 0.02
0.89 1.10 1.12 1.09 1.00 0.97 0.84 0.57 0.40 0.38 0.31 0.22 0.12 0.08 0.05 0.02 0.01 0.01 0.01 0.00 0.00 0.00 0.00 0.00 0.00 0.00 0.00 0.00 0.00 0.00 0.00 0.00 0.00 0.00 0.00 0.01 0.00 0.00 0.00 0.00 0.01 0.02 0.03
0.66 0.80 0.59 0.43 0.42 0.42 0.40 0.39 0.38 0.31 0.21 0.17 0.09 0.05 0.03 0.02 0.01 0.02 0.01 0.01 0.01 0.00 0.00 0.00 0.00 0.00 0.00 0.00 0.00 0.00 0.00 0.00 0.00 0.00 0.00 0.01 0.02 0.02 0.01 0.00 0.00 0.01 0.01
0.19 0.18 0.12 0.10 0.13 0.18 0.26 0.33 0.38 0.31 0.20 0.15 0.12 0.11 0.10 0.08 0.06 0.05 0.04 0.03 0.02 0.02 0.01 0.00 0.00 0.00 0.00 0.00 0.00 0.00 0.00 0.00 0.00 0.00 0.00 0.00 0.01 0.02 0.02 0.01 0.00 0.01 0.01
0.03 0.02 0.02 0.03 0.06 0.10 0.16 0.23 0.29 0.31 0.30 0.28 0.22 0.18 0.18 0.16 0.14 0.12 0.10 0.09 0.07 0.06 0.03 0.01 0.01 0.01 0.00 0.00 0.00 0.00 0.00 0.00 0.00 0.00 0.00 0.00 0.00 0.00 0.01 0.01 0.01 0.01 0.00
0.01 0.01 0.01 0.02 0.03 0.05 0.07 0.09 0.10 0.13 0.19 0.25 0.29 0.28 0.25 0.22 0.19 0.16 0.13 0.12 0.10 0.08 0.06 0.04 0.03 0.02 0.01 0.00 0.00 0.00 0.00 0.00 0.00 0.00 0.00 0.00 0.00 0.00 0.01 0.01 0.01 0.01 0.00
0.00 0.00 0.01 0.01 0.01 0.02 0.03 0.03 0.03 0.04 0.05 0.07 0.10 0.13 0.16 0.17 0.17 0.16 0.13 0.16 0.20 0.19 0.14 0.10 0.07 0.04 0.02 0.01 0.00 0.00 0.00 0.00 0.00 0.00 0.00 0.00 0.00 0.00 0.01 0.01 0.01 0.01 0.01
0.00 0.00 0.00 0.00 0.00 0.00 0.00 0.01 0.01 0.01 0.01 0.01 0.02 0.02 0.03 0.04 0.06 0.07 0.07 0.10 0.17 0.21 0.18 0.14 0.10 0.07 0.04 0.03 0.01 0.00 0.00 0.00 0.00 0.00 0.00 0.00 0.00 0.00 0.01 0.01 0.02 0.02 0.01
0.00 0.00 0.00 0.00 0.00 0.00 0.00 0.00 0.00 0.00 0.00 0.00 0.00 0.00 0.00 0.00 0.01 0.02 0.02 0.04 0.07 0.10 0.10 0.09 0.08 0.06 0.05 0.04 0.03 0.01 0.01 0.00 0.00 0.00 0.00 0.00 0.00 0.00 0.01 0.01 0.02 0.04 0.03
0.00 0.00 0.00 0.00 0.00 0.00 0.00 0.00 0.00 0.00 0.00 0.00 0.00 0.00 0.00 0.00 0.00 0.00 0.00 0.00 0.01 0.02 0.03 0.03 0.03 0.03 0.03 0.04 0.04 0.03 0.02 0.01 0.00 0.00 0.00 0.00 0.00 0.00 0.00 0.01 0.01 0.04 0.06
0.00 0.00 0.00 0.00 0.00 0.00 0.00 0.00 0.00 0.00 0.00 0.00 0.00 0.00 0.00 0.00 0.00 0.00 0.00 0.00 0.00 0.00 0.00 0.00 0.00 0.01 0.01 0.02 0.03 0.03 0.03 0.03 0.02 0.01 0.01 0.00 0.00 0.00 0.00 0.01 0.01 0.02 0.05
0.00 0.00 0.00 0.00 0.00 0.00 0.00 0.00 0.00 0.00 0.00 0.00 0.00 0.00 0.00 0.00 0.00 0.00 0.00 0.00 0.00 0.00 0.00 0.00 0.00 0.00 0.00 0.01 0.02 0.03 0.03 0.03 0.03 0.03 0.01 0.01 0.00 0.00 0.00 0.00 0.00 0.00 0.02
0.00 0.00 0.00 0.00 0.00 0.00 0.00 0.00 0.00 0.00 0.00 0.00 0.00 0.00 0.00 0.00 0.00 0.00 0.00 0.00 0.00 0.00 0.00 0.00 0.00 0.00 0.00 0.00 0.01 0.03 0.04 0.03 0.03 0.04 0.03 0.02 0.00 0.00 0.00 0.00 0.00 0.00 0.01
0.00 0.00 0.00 0.00 0.00 0.00 0.00 0.00 0.00 0.00 0.00 0.00 0.00 0.00 0.00 0.00 0.01 0.00 0.00 0.00 0.00 0.00 0.00 0.00 0.00 0.00 0.00 0.00 0.01 0.03 0.04 0.04 0.04 0.04 0.05 0.02 0.01 0.00 0.00 0.00 0.00 0.00 0.01
0.00 0.00 0.00 0.00 0.00 0.00 0.00 0.00 0.00 0.00 0.00 0.00 0.00 0.00 0.00 0.01 0.01 0.01 0.02 0.02 0.02 0.02 0.02 0.01 0.01 0.00 0.00 0.00 0.01 0.02 0.04 0.06 0.07 0.07 0.07 0.04 0.01 0.00 0.00 0.00 0.00 0.00 0.01
0.00 0.00 0.00 0.00 0.00 0.00 0.00 0.00 0.00 0.00 0.00 0.00 0.00 0.00 0.00 0.00 0.00 0.00 0.01 0.02 0.02 0.03 0.03 0.02 0.01 0.01 0.00 0.00 0.01 0.02 0.04 0.06 0.08 0.10 0.10 0.07 0.03 0.01 0.00 0.00 0.00 0.00 0.01
0.00 0.00 0.00 0.00 0.00 0.00 0.00 0.00 0.00 0.00 0.00 0.00 0.00 0.00 0.00 0.00 0.00 0.00 0.00 0.01 0.02 0.02 0.02 0.02 0.01 0.01 0.00 0.00 0.00 0.01 0.04 0.07 0.09 0.12 0.12 0.09 0.04 0.01 0.00 0.00 0.00 0.00 0.00
0.00 0.00 0.00 0.00 0.00 0.00 0.00 0.00 0.00 0.00 0.00 0.01 0.01 0.01 0.01 0.01 0.00 0.00 0.00 0.01 0.01 0.01 0.01 0.01 0.01 0.01 0.00 0.01 0.01 0.01 0.03 0.06 0.10 0.13 0.15 0.12 0.06 0.02 0.00 0.00 0.00 0.00 0.01
0.00 0.00 0.00 0.00 0.00 0.00 0.00 0.01 0.02 0.02 0.03 0.03 0.03 0.02 0.01 0.01 0.01 0.01 0.00 0.00 0.01 0.01 0.01 0.01 0.01 0.01 0.01 0.01 0.01 0.01 0.02 0.04 0.08 0.14 0.18 0.18 0.09 0.03 0.01 0.00 0.00 0.00 0.00
0.00 0.00 0.00 0.00 0.00 0.01 0.02 0.04 0.05 0.05 0.05 0.05 0.05 0.03 0.03 0.02 0.02 0.01 0.01 0.00 0.00 0.01 0.01 0.02 0.01 0.01 0.01 0.01 0.01 0.01 0.02 0.04 0.09 0.16 0.25 0.24 0.16 0.06 0.01 0.00 0.00 0.00 0.00
0.00 0.00 0.00 0.00 0.00 0.01 0.04 0.07 0.07 0.06 0.06 0.05 0.05 0.03 0.02 0.02 0.02 0.01 0.01 0.01 0.01 0.01 0.01 0.01 0.01 0.01 0.01 0.00 0.00 0.01 0.01 0.03 0.07 0.18 0.33 0.36 0.25 0.11 0.04 0.01 0.00 0.00 0.00
0.00 0.00 0.00 0.01 0.01 0.02 0.05 0.08 0.07 0.06 0.05 0.05 0.03 0.02 0.02 0.02 0.02 0.02 0.02 0.01 0.01 0.02 0.01 0.01 0.01 0.01 0.02 0.01 0.00 0.00 0.00 0.01 0.04 0.14 0.35 0.48 0.36 0.18 0.07 0.03 0.01 0.01 0.00
0.00 0.01 0.02 0.03 0.04 0.04 0.04 0.05 0.06 0.06 0.06 0.05 0.04 0.03 0.03 0.03 0.04 0.04 0.04 0.03 0.02 0.02 0.02 0.02 0.02 0.02 0.03 0.03 0.01 0.01 0.00 0.01 0.02 0.07 0.24 0.42 0.42 0.24 0.10 0.04 0.02 0.01 0.00
0.01 0.02 0.03 0.05 0.04 0.04 0.03 0.03 0.05 0.06 0.07 0.07 0.05 0.05 0.05 0.06 0.06 0.06 0.06 0.05 0.04 0.04 0.03 0.02 0.02 0.02 0.02 0.03 0.03 0.02 0.01 0.01 0.01 0.06 0.17 0.34 0.40 0.27 0.10 0.04 0.01 0.01 0.00
0.02 0.04 0.04 0.04 0.03 0.02 0.02 0.03 0.05 0.06 0.08 0.09 0.07 0.07 0.07 0.07 0.07 0.07 0.05 0.04 0.03 0.02 0.02 0.02 0.02 0.01 0.01 0.01 0.02 0.01 0.01 0.01 0.01 0.06 0.16 0.26 0.32 0.25 0.12 0.04 0.02 0.01 0.00
MSLP
1011.51 1011.41 1011.24 1010.98 1010.63 1010.24 1009.83 1009.46 1009.17 1008.98 1008.90 1008.92 1009.00 1009.10 1009.20 1009.27 1009.29 1009.28 1009.26 1009.25 1009.29 1009.41 1009.59 1009.84 1010.14 1010.47 1010.79 1011.09 1011.35 1011.57 1011.75 1011.89 1011.99 1012.04 1012.05 1011.99 1011.85 1011.62 1011.32 1010.95 1010.56 1010.18 1009.86
1012.17 1012.02 1011.81 1011.54 1011.20 1010.83 1010.44 1010.09 1009.82 1009.64 1009.55 1009.54 1009.57 1009.60 1009.61 1009.56 1009.47 1009.34 1009.22 1009.13 1009.12 1009.20 1009.38 1009.64 1009.96 1010.31 1010.64 1010.94 1011.20 1011.41 1011.58 1011.72 1011.83 1011.91 1011.94 1011.92 1011.81 1011.62 1011.32 1010.94 1010.52 1010.08 1009.67
1012.54 1012.35 1012.15 1011.90 1011.60 1011.28 1010.95 1010.65 1010.42 1010.26 1010.19 1010.16 1010.15 1010.13 1010.06 1009.92 1009.72 1009.49 1009.27 1009.11 1009.03 1009.06 1009.21 1009.45 1009.76 1010.09 1010.42 1010.71 1010.95 1011.15 1011.31 1011.46 1011.59 1011.71 1011.80 1011.83 1011.79 1011.64 1011.38 1011.02 1010.57 1010.09 1009.60
1012.70 1012.49 1012.30 1012.10 1011.87 1011.62 1011.36 1011.13 1010.95 1010.83 1010.77 1010.74 1010.71 1010.65 1010.52 1010.32 1010.04 1009.73 1009.44 1009.19 1009.04 1009.01 1009.10 1009.30 1009.56 1009.85 1010.13 1010.39 1010.61 1010.79 1010.95 1011.12 1011.29 1011.46 1011.61 1011.72 1011.75 1011.68 1011.47 1011.13 1010.69 1010.17 1009.64
1012.75 1012.55 1012.39 1012.25 1012.09 1011.90 1011.71 1011.54 1011.40 1011.31 1011.27 1011.25 1011.22 1011.14 1010.98 1010.74 1010.42 1010.06 1009.70 1009.39 1009.17 1009.07 1009.08 1009.20 1009.38 1009.60 1009.82 1010.02 1010.20 1010.36 1010.53 1010.71 1010.92 1011.15 1011.37 1011.56 1011.67 1011.66 1011.52 1011.22 1010.80 1010.28 1009.71
1012.82 1012.63 1012.51 1012.41 1012.30 1012.17 1012.02 1011.89 1011.78 1011.71 1011.68 1011.67 1011.64 1011.56 1011.41 1011.16 1010.83 1010.44 1010.05 1009.69 1009.41 1009.23 1009.15 1009.17 1009.25 1009.38 1009.51 1009.65 1009.77 1009.91 1010.06 1010.26 1010.50 1010.77 1011.06 1011.31 1011.49 1011.55 1011.46 1011.22 1010.83 1010.33 1009.76
1012.97 1012.80 1012.70 1012.63 1012.54 1012.43 1012.30 1012.18 1012.07 1012.01 1011.98 1011.97 1011.95 1011.89 1011.75 1011.53 1011.21 1010.84 1010.44 1010.05 1009.72 1009.47 1009.30 1009.21 1009.19 1009.20 1009.24 1009.29 1009.36 1009.45 1009.59 1009.78 1010.03 1010.33 1010.65 1010.95 1011.17 1011.28 1011.25 1011.05 1010.71 1010.26 1009.73
1013.23 1013.07 1012.98 1012.91 1012.82 1012.69 1012.54 1012.39 1012.26 1012.17 1012.13 1012.11 1012.11 1012.07 1011.97 1011.79 1011.52 1011.18 1010.80 1010.41 1010.05 1009.73 1009.49 1009.30 1009.17 1009.08 1009.01 1008.98 1008.97 1009.01 1009.11 1009.29 1009.53 1009.83 1010.15 1010.45 1010.70 1010.84 1010.84 1010.69 1010.41 1010.02 1009.56
1013.58 1013.42 1013.31 1013.21 1013.07 1012.89 1012.69 1012.48 1012.30 1012.17 1012.09 1012.07 1012.07 1012.05 1011.99 1011.86 1011.65 1011.37 1011.03 1010.67 1010.30 1009.96 1009.66 1009.40 1009.18 1008.99 1008.83 1008.71 1008.63 1008.61 1008.66 1008.80 1009.00 1009.27 1009.56 1009.85 1010.08 1010.22 1010.24 1010.14 1009.92 1009.61 1009.25
1013.95 1013.77 1013.61 1013.44 1013.23 1012.97 1012.69 1012.40 1012.15 1011.96 1011.85 1011.80 1011.79 1011.79 1011.77 1011.69 1011.55 1011.34 1011.06 1010.75 1010.41 1010.08 1009.75 1009.45 1009.17 1008.91 1008.68 1008.48 1008.34 1008.25 1008.24 1008.32 1008.47 1008.67 1008.91 1009.15 1009.35 1009.47 1009.50 1009.42 1009.27 1009.04 1008.79
1014.26 1014.02 1013.79 1013.53 1013.22 1012.86 1012.48 1012.11 1011.78 1011.53 1011.36 1011.27 1011.24 1011.25 1011.25 1011.23 1011.15 1011.01 1010.82 1010.58 1010.30 1010.01 1009.70 1009.40 1009.10 1008.80 1008.52 1008.28 1008.07 1007.93 1007.85 1007.86 1007.94 1008.08 1008.25 1008.42 1008.56 1008.65 1008.66 1008.61 1008.51 1008.37 1008.23
1014.43 1014.11 1013.78 1013.41 1012.99 1012.53 1012.06 1011.60 1011.21 1010.89 1010.66 1010.52 1010.46 1010.45 1010.47 1010.47 1010.45 1010.39 1010.28 1010.13 1009.95 1009.73 1009.48 1009.21 1008.92 1008.63 1008.33 1008.05 1007.81 1007.62 1007.49 1007.43 1007.44 1007.50 1007.60 1007.70 1007.78 1007.83 1007.83 1007.79 1007.73 1007.66 1007.63
1014.41 1013.99 1013.55 1013.06 1012.54 1011.99 1011.44 1010.92 1010.46 1010.08 1009.79 1009.60 1009.50 1009.46 1009.46 1009.48 1009.50 1009.51 1009.49 1009.44 1009.35 1009.23 1009.07 1008.87 1008.63 1008.36 1008.07 1007.79 1007.52 1007.29 1007.12 1007.01 1006.96 1006.96 1006.99 1007.04 1007.07 1007.08 1007.06 1007.03 1006.99 1006.98 1007.02
1014.19 1013.66 1013.10 1012.52 1011.91 1011.29 1010.69 1010.12 1009.61 1009.19 1008.85 1008.61 1008.45 1008.36 1008.33 1008.35 1008.39 1008.45 1008.50 1008.55 1008.57 1008.56 1008.50 1008.38 1008.21 1007.99 1007.73 1007.45 1007.18 1006.93 1006.73 1006.59 1006.50 1006.46 1006.45 1006.45 1006.45 1006.43 1006.40 1006.37 1006.35 1006.37 1006.45
1013.80 1013.17 1012.51 1011.85 1011.18 1010.52 1009.89 1009.30 1008.77 1008.32 1007.94 1007.64 1007.42 1007.28 1007.20 1007.19 1007.24 1007.32 1007.44 1007.56 1007.68 1007.76 1007.80 1007.77 1007.67 1007.50 1007.28 1007.02 1006.75 1006.50 1006.29 1006.13 1006.03 1005.97 1005.94 1005.93 1005.92 1005.90 1005.87 1005.83 1005.82 1005.86 1005.97
1013.30 1012.58 1011.85 1011.14 1010.44 1009.78 1009.14 1008.56 1008.03 1007.55 1007.14 1006.79 1006.51 1006.30 1006.17 1006.12 1006.14 1006.24 1006.39 1006.57 1006.75 1006.92 1007.03 1007.07 1007.03 1006.91 1006.72 1006.48 1006.23 1005.99 1005.78 1005.63 1005.53 1005.48 1005.47 1005.47 1005.48 1005.47 1005.45 1005.43 1005.43 1005.47 1005.59
1012.75 1011.98 1011.22 1010.48 1009.79 1009.14 1008.53 1007.97 1007.45 1006.97 1006.53 1006.13 1005.79 1005.51 1005.32 1005.21 1005.20 1005.28 1005.43 1005.64 1005.86 1006.07 1006.24 1006.32 1006.32 1006.23 1006.06 1005.84 1005.60 1005.38 1005.19 1005.06 1004.99 1004.98 1005.01 1005.05 1005.09 1005.12 1005.13 1005.14 1005.15 1005.20 1005.32
1012.24 1011.44 1010.67 1009.95 1009.28 1008.66 1008.09 1007.56 1007.05 1006.56 1006.10 1005.66 1005.26 1004.92 1004.66 1004.49 1004.43 1004.47 1004.61 1004.81 1005.04 1005.26 1005.44 1005.55 1005.56 1005.48 1005.32 1005.12 1004.90 1004.70 1004.54 1004.45 1004.43 1004.47 1004.55 1004.65 1004.75 1004.83 1004.89 1004.93 1004.98 1005.05 1005.18
1011.80 1011.01 1010.27 1009.57 1008.93 1008.35 1007.81 1007.30 1006.80 1006.30 1005.81 1005.33 1004.88 1004.48 1004.15 1003.93 1003.81 1003.81 1003.91 1004.08 1004.29 1004.49 1004.66 1004.75 1004.76 1004.68 1004.53 1004.35 1004.15 1003.98 1003.87 1003.83 1003.86 1003.96 1004.11 1004.28 1004.44 1004.59 1004.70 1004.80 1004.89 1005.00 1005.15
1011.47 1010.71 1009.99 1009.32 1008.71 1008.15 1007.62 1007.12 1006.61 1006.10 1005.58 1005.06 1004.56 1004.11 1003.73 1003.45 1003.29 1003.23 1003.28 1003.40 1003.57 1003.74 1003.87 1003.94 1003.94 1003.86 1003.73 1003.56 1003.41 1003.28 1003.23 1003.25 1003.35 1003.51 1003.72 1003.95 1004.18 1004.39 1004.57 1004.72 1004.87 1005.03 1005.22
1011.23 1010.50 1009.80 1009.16 1008.56 1008.00 1007.46 1006.93 1006.41 1005.86 1005.31 1004.75 1004.22 1003.73 1003.31 1002.99 1002.78 1002.68 1002.68 1002.75 1002.86 1002.98 1003.08 1003.13 1003.11 1003.04 1002.94 1002.82 1002.71 1002.66 1002.67 1002.76 1002.92 1003.15 1003.42 1003.70 1003.98 1004.24 1004.47 1004.68 1004.89 1005.11 1005.36
1011.05 1010.35 1009.67 1009.02 1008.40 1007.82 1007.25 1006.68 1006.11 1005.52 1004.93 1004.34 1003.78 1003.27 1002.82 1002.48 1002.23 1002.10 1002.05 1002.08 1002.14 1002.22 1002.29 1002.32 1002.31 1002.26 1002.20 1002.14 1002.12 1002.14 1002.23 1002.40 1002.63 1002.91 1003.22 1003.54 1003.85 1004.15 1004.42 1004.67 1004.94 1005.22 1005.54
1010.90 1010.21 1009.53 1008.86 1008.21 1007.57 1006.94 1006.31 1005.68 1005.05 1004.42 1003.81 1003.23 1002.71 1002.26 1001.90 1001.64 1001.48 1001.40 1001.39 1001.42 1001.46 1001.51 1001.54 1001.55 1001.55 1001.55 1001.58 1001.64 1001.76 1001.94 1002.19 1002.48 1002.80 1003.14 1003.47 1003.80 1004.10 1004.39 1004.67 1004.98 1005.31 1005.70
1010.75 1010.06 1009.35 1008.65 1007.94 1007.24 1006.54 1005.84 1005.15 1004.47 1003.81 1003.19 1002.60 1002.09 1001.65 1001.29 1001.03 1000.86 1000.76 1000.72 1000.72 1000.74 1000.78 1000.82 1000.87 1000.93 1001.01 1001.13 1001.30 1001.52 1001.79 1002.10 1002.45 1002.80 1003.15 1003.48 1003.78 1004.08 1004.36 1004.66 1004.98 1005.36 1005.80
1010.59 1009.88 1009.14 1008.38 1007.62 1006.84 1006.08 1005.31 1004.57 1003.85 1003.17 1002.54 1001.97 1001.47 1001.05 1000.72 1000.47 1000.29 1000.18 1000.12 1000.10 1000.11 1000.14 1000.21 1000.29 1000.42 1000.58 1000.80 1001.07 1001.38 1001.73 1002.11 1002.49 1002.86 1003.20 1003.51 1003.79 1004.05 1004.31 1004.59 1004.93 1005.33 1005.80
1010.41 1009.67 1008.90 1008.10 1007.27 1006.44 1005.61 1004.80 1004.02 1003.28 1002.59 1001.97 1001.43 1000.96 1000.57 1000.26 1000.02 999.85 999.73 999.66 999.62 999.62 999.66 999.73 999.86 1000.04 1000.27 1000.57 1000.92 1001.31 1001.73 1002.15 1002.55 1002.92 1003.24 1003.51 1003.75 1003.97 1004.20 1004.46 1004.79 1005.20 1005.70
Thickness
5756 5758 5758 5754 5747 5743 5739 5732 5717 5717 5717 5718 5722 5727 5730 5735 5737 5738 5737 5735 5734 5732 5730 5728 5728 5726 5725 5724 5725 5724 5723 5722 5723 5720 5719 5722 5727 5728 5728 5727 5727 5728 5729
5748 5752 5752 5750 5744 5737 5732 5728 5718 5716 5714 5716 5720 5723 5726 5729 5732 5733 5732 5731 5730 5729 5727 5724 5722 5721 5720 5720 5721 5721 5719 5718 5719 5715 5712 5709 5713 5720 5725 5724 5724 5725 5726
5738 5742 5743 5740 5736 5727 5720 5720 5713 5709 5708 5711 5715 5720 5721 5722 5723 5723 5723 5725 5725 5724 5722 5720 5718 5717 5716 5715 5716 5717 5715 5712 5714 5714 5709 5704 5700 5705 5715 5719 5719 5720 5721
5729 5731 5731 5728 5724 5717 5712 5705 5702 5702 5704 5706 5708 5711 5711 5711 5713 5716 5716 5718 5719 5719 5718 5716 5715 5714 5713 5712 5711 5713 5712 5709 5707 5708 5709 5707 5704 5701 5701 5709 5713 5715 5715
5720 5721 5720 5717 5713 5709 5704 5699 5696 5695 5695 5697 5698 5699 5700 5701 5704 5706 5707 5708 5710 5712 5713 5712 5711 5709 5708 5707 5707 5707 5707 5706 5704 5702 5702 5702 5702 5701 5697 5698 5703 5707 5711
5711 5712 5710 5707 5701 5698 5694 5692 5689 5688 5687 5686 5687 5687 5686 5687 5689 5691 5693 5695 5698 5702 5705 5706 5706 5705 5703 5702 5701 5701 5702 5701 5700 5699 5698 5697 5696 5696 5696 5695 5697 5698 5704
5703 5702 5699 5694 5689 5685 5683 5681 5679 5678 5677 5676 5675 5675 5675 5675 5674 5675 5677 5679 5682 5687 5692 5698 5699 5699 5698 5697 5696 5694 5695 5696 5695 5695 5694 5694 5695 5695 5694 5693 5693 5694 5697
5694 5692 5688 5684 5679 5676 5672 5669 5667 5666 5665 5663 5662 5662 5662 5662 5662 5662 5663 5664 5667 5671 5678 5684 5689 5691 5691 5691 5689 5688 5688 5690 5690 5690 5690 5690 5691 5692 5692 5692 5691 5690 5691
5682 5678 5676 5672 5668 5664 5661 5657 5654 5651 5649 5647 5646 5645 5645 5645 5646 5647 5648 5649 5652 5658 5663 5668 5673 5677 5680 5682 5682 5681 5681 5683 5684 5685 5685 5686 5687 5689 5690 5691 5690 5688 5686
5668 5666 5663 5661 5658 5653 5648 5644 5640 5637 5635 5633 5631 5630 5628 5628 5629 5630 5632 5634 5637 5640 5644 5649 5654 5660 5666 5670 5673 5674 5676 5676 5678 5679 5680 5681 5683 5684 5686 5687 5688 5688 5686
5658 5655 5653 5651 5647 5641 5635 5629 5624 5619 5616 5613 5612 5611 5610 5610 5610 5610 5612 5615 5618 5622 5626 5630 5635 5641 5648 5655 5660 5664 5668 5669 5671 5673 5675 5677 5679 5679 5681 5683 5684 5685 5685
5648 5643 5638 5634 5629 5623 5618 5613 5608 5603 5599 5594 5591 5588 5587 5587 5588 5589 5592 5595 5598 5602 5607 5612 5617 5622 5629 5637 5645 5651 5657 5660 5663 5666 5669 5672 5675 5675 5677 5678 5679 5681 5683
5635 5629 5623 5619 5614 5608 5603 5597 5592 5588 5584 5579 5575 5571 5568 5566 5565 5566 5568 5571 5574 5579 5585 5591 5597 5603 5610 5618 5627 5636 5643 5649 5654 5659 5662 5666 5669 5670 5672 5674 5675 5677 5680
5621 5615 5610 5605 5600 5595 5590 5584 5580 5575 5571 5567 5563 5560 5557 5554 5552 5550 5549 5550 5552 5557 5563 5570 5577 5584 5592 5600 5609 5619 5628 5635 5642 5649 5655 5660 5663 5666 5668 5669 5671 5673 5675
5614 5608 5601 5595 5589 5584 5579 5574 5570 5566 5563 5559 5555 5553 5551 5548 5545 5542 5540 5538 5537 5539 5543 5549 5556 5565 5573 5583 5592 5602 5612 5621 5630 5638 5646 5653 5658 5662 5664 5665 5667 5669 5672
5606 5601 5596 5590 5584 5578 5574 5569 5564 5559 5555 5551 5549 5547 5544 5541 5539 5537 5535 5533 5531 5531 5531 5534 5539 5547 5557 5567 5576 5585 5595 5606 5616 5626 5636 5644 5650 5654 5657 5661 5664 5667 5670
5598 5594 5589 5582 5576 5570 5564 5558 5554 5549 5544 5541 5540 5538 5536 5533 5532 5531 5529 5527 5526 5526 5525 5527 5530 5534 5542 5550 5559 5568 5578 5590 5602 5614 5624 5633 5640 5644 5648 5652 5657 5662 5668
5590 5585 5578 5571 5563 5555 5548 5541 5536 5531 5528 5526 5525 5525 5524 5523 5522 5521 5520 5520 5519 5519 5520 5522 5525 5529 5534 5540 5545 5553 5562 5574 5587 5601 5612 5622 5630 5635 5639 5643 5647 5653 5659
5580 5573 5564 5555 5546 5535 5526 5518 5513 5508 5505 5504 5505 5506 5507 5508 5509 5508 5509 5510 5510 5511 5514 5517 5521 5524 5529 5533 5537 5542 5547 5558 5572 5587 5601 5611 5621 5626 5630 5634 5638 5643 5648
5571 5562 5553 5542 5530 5518 5507 5497 5490 5484 5481 5480 5481 5484 5487 5490 5493 5495 5497 5499 5501 5504 5507 5512 5516 5520 5524 5529 5533 5536 5538 5546 5557 5572 5588 5600 5610 5616 5621 5626 5630 5634 5638
5563 5554 5543 5530 5517 5505 5493 5483 5474 5469 5465 5463 5464 5466 5468 5472 5476 5480 5485 5488 5492 5495 5500 5505 5511 5516 5521 5526 5530 5532 5533 5536 5544 5557 5572 5586 5597 5604 5611 5617 5622 5628 5632
5558 5549 5537 5523 5509 5495 5483 5474 5465 5460 5455 5452 5452 5453 5456 5459 5465 5469 5474 5478 5482 5486 5492 5497 5504 5511 5517 5523 5527 5529 5531 5532 5535 5546 5558 5571 5583 5590 5598 5606 5611 5616 5622
5553 5543 5530 5517 5504 5490 5477 5468 5462 5455 5450 5447 5445 5446 5448 5450 5455 5459 5464 5469 5474 5479 5486 5492 5499 5506 5513 5519 5524 5527 5528 5529 5529 5536 5548 5560 5570 5578 5585 5593 5599 5606 5612
5549 5539 5527 5515 5502 5489 5478 5468 5461 5454 5449 5446 5444 5443 5443 5446 5449 5453 5459 5464 5469 5474 5481 5488 5495 5502 5508 5514 5519 5521 5523 5524 5525 5529 5537 5548 5559 5567 5574 5582 5589 5598 5603
5545 5535 5523 5511 5500 5490 5481 5472 5464 5457 5451 5449 5446 5444 5443 5444 5447 5452 5456 5462 5468 5473 5479 5486 5492 5498 5505 5513 5519 5520 5521 5522 5523 5524 5529 5538 5549 5556 5565 5573 5580 5587 5592
5543 5534 5523 5512 5501 5493 5485 5479 5471 5462 5455 5451 5448 5446 5445 5446 5449 5452 5456 5462 5467 5472 5478 5484 5490 5497 5505 5512 5515 5517 5519 5519 5519 5521 5525 5532 5541 5550 5558 5566 5572 5579 5585